Location: Alt?nova Orta
(36.9295°N, 30.7847°E)
Time: 15:11:38
(UTC+00:00)

Cosmos 1339 Rocket - Pass Details

Date: 17 February 2020
Orbit: 943 x 1005 km, 82.9° (Epoch: 08 April)

Event Time Altitude Azimuth Distance (km) Brightness Sun altitude
Rises 02:52:38 0° 198° (SSW) 3,594 7.3 -22.9°
Reaches altitude 10° 02:55:10 10° 202° (SSW) 2,651 6.5 -22.4°
Maximum altitude 03:01:04 55° 280° (W) 1,128 4.4 -21.2°
Drops below altitude 10° 03:07:02 10° 357° (N) 2,675 6.8 -20.0°
Sets 03:09:37 0° 2° (N) 3,630 7.5 -19.5°
